Bowen Airport AWS Observation History
Time Wind Speed Temp Pressure Rel. Hum Rain
03/06:30am SE 12-18 kts 17.7°c 1019.9 hPa 57% 0.0mm
03/06:00am SSE 11-15 kts 17.6°c 1019.6 hPa 56% 0.0mm
03/05:30am SSE 12-16 kts 18.0°c 1019.4 hPa 57% 0.0mm
03/05:00am SSE 8-10 kts 17.8°c 1019.1 hPa 61% 0.0mm
03/04:30am SSE 8-12 kts 17.6°c 1019.0 hPa 59% 0.0mm
03/04:00am SSE 9-12 kts 18.3°c 1019.1 hPa 63% 0.0mm
03/03:30am SSE 9-13 kts 18.4°c 1019.0 hPa 69% 0.0mm
03/03:00am SSE 7-11 kts 18.8°c 1019.1 hPa 68% 0.0mm
03/02:30am SSE 7-11 kts 18.4°c 1019.2 hPa 68% 0.0mm
03/02:00am SE 10-14 kts 19.4°c 1019.3 hPa 68% 0.0mm
03/01:30am SE 6-13 kts 19.2°c 1019.7 hPa 67% 0.0mm
03/01:00am SSE 5-7 kts 19.2°c 1020.0 hPa 67% 0.0mm
03/12:30am SSE 4-8 kts 18.6°c 1019.8 hPa 73% 0.0mm
03/12:00am SSW 4-6 kts 17.9°c 1019.9 hPa 79% 0.0mm
Time Wind Speed Temp Pressure Rel. Hum Rain
02/11:30pm SE 6-9 kts 19.7°c 1020.2 hPa 74% 0.0mm
02/11:00pm SE 11-14 kts 20.5°c 1020.3 hPa 75% 0.0mm
02/10:30pm SE 13-17 kts 20.7°c 1020.2 hPa 80% 0.0mm
02/10:00pm SSE 12-16 kts 20.7°c 1020.1 hPa 79% 0.0mm
02/09:30pm SSE 12-16 kts 20.9°c 1020.0 hPa 78% 0.0mm
02/09:00pm SE 9-14 kts 20.6°c 1019.9 hPa 80% 0.0mm
02/08:30pm SSE 10-13 kts 20.5°c 1019.7 hPa 81% 0.0mm
02/08:00pm SE 6-9 kts 20.8°c 1019.5 hPa 78% 0.0mm
02/07:30pm SE 7-10 kts 21.3°c 1019.2 hPa 78% 0.0mm
02/07:00pm SE 8-11 kts 22.0°c 1018.9 hPa 77% 0.0mm
02/06:30pm ESE 8-10 kts 23.3°c 1018.4 hPa 81% 0.0mm
02/06:00pm ENE 5-7 kts 23.0°c 1018.1 hPa 79% 0.0mm
02/05:30pm ENE 2 kts 23.5°c 1017.8 hPa 73% 0.0mm
02/05:00pm ENE 4-7 kts 23.9°c 1017.5 hPa 72% 0.0mm
02/04:30pm ENE 6-8 kts 24.7°c 1017.3 hPa 64% 0.0mm
02/04:00pm NE 7-9 kts 25.9°c 1016.9 hPa 59% 0.0mm
02/03:30pm NNE 7-9 kts 25.4°c 1016.8 hPa 64% 0.0mm
02/03:00pm N 6-9 kts 26.4°c 1016.6 hPa 61% 0.0mm
02/02:30pm NNE 5-7 kts 27.2°c 1016.6 hPa 59% 0.0mm
02/02:00pm NNE 6-9 kts 26.3°c 1016.8 hPa 63% 0.0mm
02/01:30pm NNE 5-7 kts 27.0°c 1016.9 hPa 60% 0.0mm
02/01:00pm N 6-11 kts 27.4°c 1017.4 hPa 64% 0.0mm
02/12:30pm ENE 4-10 kts 27.0°c 1017.8 hPa 62% 0.0mm
02/12:00pm ESE 6-8 kts 27.0°c 1018.3 hPa 60% 0.0mm
02/11:30am SE 5-6 kts 26.0°c 1018.7 hPa 62% 0.0mm
02/11:00am S 4-7 kts 25.8°c 1018.8 hPa 59% 0.0mm
02/10:30am SW 3-6 kts 24.8°c 1019.2 hPa 65% 0.0mm
02/10:00am SSW 2-5 kts 24.3°c 1019.5 hPa 68% 0.0mm
02/09:30am SW 5-6 kts 22.9°c 1019.4 hPa 75% 0.0mm
02/09:00am SW 2-3 kts 22.0°c 1019.4 hPa 80% 0.0mm
02/08:30am SW 4-5 kts 20.4°c 1019.3 hPa 87% 0.0mm
02/08:00am SW 4-5 kts 18.1°c 1019.2 hPa 95% 0.0mm
02/07:30am SW 5-7 kts 16.6°c 1018.9 hPa 99% 0.0mm
02/07:00am SW 6 kts 15.5°c 1018.5 hPa 100% 0.0mm
02/06:30am SW 7-8 kts 15.4°c 1018.3 hPa 100% 0.0mm
02/06:00am SW 8-9 kts 15.4°c 1017.8 hPa 100% 0.0mm
02/05:30am SW 5-6 kts 15.2°c 1017.3 hPa 100% 0.0mm
02/05:00am SW 2-3 kts 15.0°c 1016.9 hPa 100% 0.0mm
02/04:30am SW 5-6 kts 15.2°c 1016.9 hPa 100% 0.0mm
02/04:00am SW 4-5 kts 14.9°c 1016.7 hPa 99% 0.0mm
02/03:30am SW 3-5 kts 15.3°c 1016.8 hPa 99% 0.0mm
02/03:00am SW 4-5 kts 15.5°c 1016.9 hPa 100% 0.0mm
02/02:30am SW 4 kts 15.6°c 1017.1 hPa 99% 0.0mm
02/02:00am SW 4-5 kts 15.7°c 1017.3 hPa 98% 0.0mm
02/01:30am SW 2 kts 15.9°c 1017.6 hPa 98% 0.0mm
02/01:00am SW 5 kts 16.3°c 1017.6 hPa 98% 0.0mm
02/12:30am SSW 4-5 kts 16.4°c 1017.5 hPa 98% 0.0mm
02/12:00am SSW 5-6 kts 16.8°c 1017.8 hPa 99% 0.0mm
Time Wind Speed Temp Pressure Rel. Hum Rain
01/11:30pm NE 3 kts 16.8°c 1017.7 hPa 97% 0.0mm
01/11:00pm NE 3-4 kts 17.3°c 1017.8 hPa 97% 0.0mm
01/10:30pm NE 4 kts 17.3°c 1018.0 hPa 97% 0.0mm
01/10:00pm NE 3 kts 17.5°c 1018.0 hPa 96% 0.0mm
01/09:30pm NE 5 kts 17.8°c 1017.9 hPa 97% 0.0mm
01/09:00pm NE 4 kts 18.0°c 1017.6 hPa 95% 0.0mm
01/08:30pm CALM 0 kts 18.6°c 1017.5 hPa 87% 0.0mm
01/08:00pm CALM 0 kts 19.7°c 1017.4 hPa 88% 0.0mm
01/07:30pm NE 2 kts 20.7°c 1017.2 hPa 81% 0.0mm
01/07:00pm NE 3 kts 21.7°c 1016.9 hPa 80% 0.0mm
01/06:30pm NE 3 kts 21.9°c 1016.8 hPa 79% 0.0mm
01/06:00pm NE 3-4 kts 22.3°c 1016.3 hPa 77% 0.0mm
01/05:30pm NE 3-5 kts 22.9°c 1016.2 hPa 74% 0.0mm
01/05:00pm NE 6-9 kts 23.8°c 1016.0 hPa 73% 0.0mm
01/04:30pm NE 6-9 kts 24.6°c 1015.9 hPa 71% 0.0mm
01/04:00pm NE 7-11 kts 24.7°c 1015.8 hPa 66% 0.0mm
01/03:30pm NE 7-10 kts 25.5°c 1015.7 hPa 67% 0.0mm
01/03:00pm NNE 8-10 kts 25.6°c 1015.6 hPa 60% 0.0mm
01/02:30pm NNE 7-10 kts 26.0°c 1015.7 hPa 59% 0.0mm
01/02:00pm NNE 7-11 kts 26.2°c 1016.0 hPa 58% 0.0mm
01/01:30pm ENE 6-9 kts 26.3°c 1016.1 hPa 58% 0.0mm
01/01:00pm ENE 6-9 kts 25.8°c 1016.4 hPa 63% 0.0mm
01/12:30pm E 7-9 kts 25.8°c 1017.0 hPa 62% 0.0mm
01/12:00pm ESE 7-9 kts 25.7°c 1017.4 hPa 69% 0.0mm
01/11:30am ESE 6-8 kts 24.9°c 1017.8 hPa 71% 0.0mm
01/11:00am ESE 7-9 kts 24.6°c 1018.0 hPa 69% 0.0mm
01/10:30am SE 7-9 kts 24.4°c 1018.3 hPa 71% 0.0mm
01/10:00am ESE 7-8 kts 23.8°c 1018.5 hPa 75% 0.0mm
01/09:30am SE 5-6 kts 23.0°c 1018.5 hPa 79% 0.0mm
01/09:00am SE 6-8 kts 22.0°c 1018.6 hPa 82% 0.0mm
01/08:30am SSW 4-5 kts 20.5°c 1018.4 hPa 90% 0.0mm
01/08:00am SW 3 kts 18.4°c 1018.2 hPa 98% 0.0mm
01/07:30am SW 3-4 kts 17.0°c 1018.0 hPa 100% 0.0mm
01/07:00am SW 6 kts 16.0°c 1018.0 hPa 100% 0.0mm
01/06:30am SW 6 kts 15.6°c 1017.5 hPa 100% 0.0mm
01/06:00am SW 5 kts 15.5°c 1017.3 hPa 100% 0.0mm
01/05:30am SW 5-6 kts 15.7°c 1017.2 hPa 100% 0.0mm
01/05:00am SW 5-6 kts 15.8°c 1017.0 hPa 100% 0.0mm
01/04:30am SW 5-6 kts 15.9°c 1017.0 hPa 100% 0.0mm
01/04:00am SW 6-7 kts 16.3°c 1017.0 hPa 100% 0.0mm
01/03:30am SW 5 kts 16.1°c 1017.1 hPa 100% 0.0mm
01/03:00am SW 4-5 kts 16.2°c 1017.2 hPa 100% 0.0mm
01/02:30am SSW 4-5 kts 16.0°c 1017.3 hPa 100% 0.0mm
01/02:00am SSW 5 kts 16.0°c 1017.6 hPa 99% 0.0mm
01/01:30am SSW 4-5 kts 16.8°c 1018.0 hPa 99% 0.0mm
01/01:00am SSW 4-5 kts 17.5°c 1018.3 hPa 99% 0.0mm
01/12:30am S 6 kts 18.1°c 1018.4 hPa 100% 0.0mm
01/12:00am SE 3 kts 18.1°c 1018.3 hPa 99% 0.0mm